Simultaneous Nadir Overpasses (SNOs) Predictions

Prediction of SNOs between AQUA and METOP-B Satellite Orbit:

Table of predicted SNOs for the next 14.0 days since TLE Epoch: 8/9/2025
Index Date (AQUA) Time (AQUA) Lat,Lon (AQUA) SZA (AQUA ) Date (METOP-B) Time (METOP-B) Lat,Lon (METOP-B) SZA (METOP-B ) Distance(km) Time Diff (sec)
1 08/10/2025 18:45:57 77.78,-101.73 62.40 08/10/2025 18:45:43 77.78,-101.87 62.40 3.14 14
2 08/10/2025 19:35:15 -77.82, 65.77 117.56 08/10/2025 19:36:23 -77.83, 65.70 117.54 2.24 68
3 08/13/2025 06:44:38 -77.80,-101.43 116.83 08/13/2025 06:44:02 -77.79,-101.46 116.84 1.57 36
4 08/13/2025 07:33:57 77.82, 66.15 63.20 08/13/2025 07:34:41 77.85, 66.16 63.23 2.81 44
5 08/15/2025 18:43:19 77.79,-100.99 63.93 08/15/2025 18:42:20 77.79,-101.04 63.94 1.36 59
6 08/15/2025 19:32:37 -77.83, 66.53 116.02 08/15/2025 19:33:00 -77.85, 66.56 116.00 2.65 23
7 08/18/2025 06:41:54 -77.60, -99.74 115.46 08/18/2025 06:40:45 -77.54,-101.82 115.51 50.24 69
8 08/18/2025 07:31:17 77.85, 66.83 64.80 08/18/2025 07:31:17 77.85, 66.93 64.80 2.44 0
9 08/18/2025 08:20:44 -78.27,-127.53 114.75 08/18/2025 08:21:48 -78.27,-123.58 114.76 89.47 64
10 08/20/2025 19:29:55 -77.82, 67.36 114.41 08/20/2025 19:29:36 -77.85, 67.31 114.38 3.00 19



Historial Predications of SNOs between AQUA and METOP-B
